Time,TemperatureF,DewpointF,PressureIn,WindDirection,WindDirectionDegrees,WindSpeedMPH,WindSpeedGustMPH,Humidity,HourlyPrecipIn,Conditions,Clouds,dailyrainin,SolarRadiationWatts/m^2,SoftwareType,DateUTC
2013-05-31 00:11:00,74.1,72.3,29.95,SSE,154,1.0,8.0,94,0.00,,,0.13,0,Wunderground v.1.15,2013-05-31 05:11:00,
2013-05-31 00:22:00,74.1,72.3,29.95,SE,140,0.0,8.0,94,0.00,,,0.13,0,Wunderground v.1.15,2013-05-31 05:22:00,
2013-05-31 00:31:00,74.2,72.4,29.95,SE,138,1.0,4.0,94,0.00,,,0.13,0,Wunderground v.1.15,2013-05-31 05:31:00,
2013-05-31 00:36:00,74.2,72.4,29.95,ESE,111,1.0,8.0,94,0.00,,,0.13,0,Wunderground v.1.15,2013-05-31 05:36:00,
2013-05-31 00:41:00,74.2,72.4,29.95,ESE,117,1.0,8.0,94,0.00,,,0.13,0,Wunderground v.1.15,2013-05-31 05:41:00,
2013-05-31 00:46:00,74.2,72.4,29.95,SE,143,1.0,8.0,94,0.00,,,0.13,0,Wunderground v.1.15,2013-05-31 05:46:00,
2013-05-31 00:51:00,74.1,72.3,29.94,SSE,153,0.0,8.0,94,0.00,,,0.13,0,Wunderground v.1.15,2013-05-31 05:51:00,
2013-05-31 00:56:00,74.1,72.3,29.94,South,190,1.0,8.0,94,0.00,,,0.13,0,Wunderground v.1.15,2013-05-31 05:56:00,
2013-05-31 01:02:00,74.1,72.3,29.94,ESE,123,0.0,1.0,94,0.00,,,0.13,0,Wunderground v.1.15,2013-05-31 06:02:00,
2013-05-31 01:07:00,74.1,72.3,29.94,SE,133,0.0,1.0,94,0.00,,,0.13,0,Wunderground v.1.15,2013-05-31 06:07:00,
2013-05-31 01:12:00,74.1,72.3,29.94,ESE,123,0.0,1.0,94,0.00,,,0.13,0,Wunderground v.1.15,2013-05-31 06:12:00,
2013-05-31 01:17:00,74.1,72.3,29.94,SE,139,0.0,1.0,94,0.00,,,0.13,0,Wunderground v.1.15,2013-05-31 06:17:00,
2013-05-31 01:23:00,74.1,72.3,29.93,SE,132,0.0,2.0,94,0.00,,,0.13,0,Wunderground v.1.15,2013-05-31 06:23:00,
2013-05-31 01:28:00,74.1,72.3,29.94,South,170,1.0,2.0,94,0.00,,,0.13,0,Wunderground v.1.15,2013-05-31 06:28:00,
2013-05-31 01:33:00,74.1,72.3,29.93,South,179,1.0,1.0,94,0.00,,,0.13,0,Wunderground v.1.15,2013-05-31 06:33:00,
2013-05-31 01:38:00,74.1,72.3,29.93,South,180,1.0,1.0,94,0.00,,,0.13,0,Wunderground v.1.15,2013-05-31 06:38:00,
2013-05-31 01:44:00,74.1,72.3,29.93,SE,125,1.0,10.0,94,0.00,,,0.13,0,Wunderground v.1.15,2013-05-31 06:44:00,
2013-05-31 01:49:00,74.0,72.2,29.92,SSE,152,2.0,10.0,94,0.00,,,0.13,0,Wunderground v.1.15,2013-05-31 06:49:00,
2013-05-31 01:54:00,74.1,72.3,29.92,SE,144,2.0,2.0,94,0.00,,,0.13,0,Wunderground v.1.15,2013-05-31 06:54:00,
2013-05-31 02:00:00,74.1,72.3,29.92,ESE,121,1.0,1.0,94,0.00,,,0.13,0,Wunderground v.1.15,2013-05-31 07:00:00,
2013-05-31 02:05:00,74.1,72.3,29.92,SE,130,1.0,3.0,94,0.00,,,0.13,0,Wunderground v.1.15,2013-05-31 07:05:00,
2013-05-31 02:11:00,74.1,72.3,29.92,SSW,194,1.0,1.0,94,0.00,,,0.13,0,Wunderground v.1.15,2013-05-31 07:11:00,
2013-05-31 02:16:00,74.0,72.2,29.92,ESE,121,1.0,5.0,94,0.00,,,0.13,0,Wunderground v.1.15,2013-05-31 07:16:00,
2013-05-31 02:21:00,74.0,72.2,29.92,SE,144,1.0,6.0,94,0.00,,,0.13,0,Wunderground v.1.15,2013-05-31 07:21:00,
2013-05-31 02:26:00,74.0,72.5,29.92,SE,138,1.0,6.0,95,0.00,,,0.13,0,Wunderground v.1.15,2013-05-31 07:26:00,
2013-05-31 02:33:00,73.9,72.4,29.92,SSE,152,1.0,1.0,95,0.00,,,0.13,0,Wunderground v.1.15,2013-05-31 07:33:00,
2013-05-31 02:38:00,73.9,72.4,29.92,SSE,152,0.0,1.0,95,0.00,,,0.13,0,Wunderground v.1.15,2013-05-31 07:38:00,
2013-05-31 02:43:00,73.8,72.3,29.92,ESE,115,0.0,1.0,95,0.00,,,0.13,0,Wunderground v.1.15,2013-05-31 07:43:00,
2013-05-31 02:48:00,73.8,72.6,29.92,SE,128,0.0,1.0,96,0.00,,,0.13,0,Wunderground v.1.15,2013-05-31 07:48:00,
2013-05-31 02:54:00,73.7,72.5,29.92,South,182,1.0,3.0,96,0.00,,,0.14,0,Wunderground v.1.15,2013-05-31 07:54:00,
2013-05-31 03:00:00,73.6,72.4,29.91,SE,135,2.0,2.0,96,0.00,,,0.14,0,Wunderground v.1.15,2013-05-31 08:00:00,
2013-05-31 03:05:00,73.5,72.3,29.91,SSW,213,1.0,2.0,96,0.00,,,0.14,0,Wunderground v.1.15,2013-05-31 08:05:00,
2013-05-31 03:11:00,73.4,72.2,29.91,South,169,1.0,1.0,96,0.00,,,0.15,0,Wunderground v.1.15,2013-05-31 08:11:00,
2013-05-31 03:16:00,73.4,72.5,29.91,SE,144,0.0,4.0,97,0.00,,,0.15,0,Wunderground v.1.15,2013-05-31 08:16:00,
2013-05-31 03:21:00,73.4,72.5,29.91,South,169,0.0,1.0,97,0.00,,,0.15,0,Wunderground v.1.15,2013-05-31 08:21:00,
2013-05-31 03:26:00,73.4,72.5,29.91,South,175,1.0,5.0,97,0.00,,,0.15,0,Wunderground v.1.15,2013-05-31 08:26:00,
2013-05-31 03:31:00,73.3,72.4,29.91,South,179,1.0,1.0,97,0.00,,,0.15,0,Wunderground v.1.15,2013-05-31 08:31:00,
2013-05-31 03:37:00,73.3,72.4,29.91,SSE,161,0.0,4.0,97,0.00,,,0.15,0,Wunderground v.1.15,2013-05-31 08:37:00,
2013-05-31 03:42:00,73.3,72.4,29.91,SE,140,0.0,3.0,97,0.00,,,0.15,0,Wunderground v.1.15,2013-05-31 08:42:00,
2013-05-31 03:47:00,73.3,72.4,29.91,SE,129,0.0,3.0,97,0.00,,,0.15,0,Wunderground v.1.15,2013-05-31 08:47:00,
2013-05-31 03:52:00,73.3,72.4,29.91,SSE,158,0.0,1.0,97,0.00,,,0.15,0,Wunderground v.1.15,2013-05-31 08:52:00,
2013-05-31 03:58:00,73.4,72.5,29.91,SE,129,0.0,1.0,97,0.00,,,0.15,0,Wunderground v.1.15,2013-05-31 08:58:00,
2013-05-31 04:03:00,73.4,72.5,29.91,SSW,197,1.0,1.0,97,0.00,,,0.15,0,Wunderground v.1.15,2013-05-31 09:03:00,
2013-05-31 04:08:00,73.4,72.5,29.91,ESE,121,1.0,7.0,97,0.00,,,0.15,0,Wunderground v.1.15,2013-05-31 09:08:00,
2013-05-31 04:13:00,73.5,72.6,29.91,South,174,1.0,3.0,97,0.00,,,0.15,0,Wunderground v.1.15,2013-05-31 09:13:00,
2013-05-31 04:19:00,73.5,72.6,29.91,SE,124,0.0,3.0,97,0.00,,,0.15,0,Wunderground v.1.15,2013-05-31 09:19:00,
2013-05-31 04:24:00,73.5,72.6,29.91,ESE,122,0.0,1.0,97,0.00,,,0.15,0,Wunderground v.1.15,2013-05-31 09:24:00,
2013-05-31 04:29:00,73.5,72.6,29.92,SE,143,0.0,1.0,97,0.00,,,0.15,0,Wunderground v.1.15,2013-05-31 09:29:00,
2013-05-31 04:35:00,73.5,72.6,29.92,South,173,0.0,1.0,97,0.00,,,0.15,0,Wunderground v.1.15,2013-05-31 09:35:00,
2013-05-31 04:40:00,73.5,72.6,29.92,SSE,151,0.0,1.0,97,0.00,,,0.15,0,Wunderground v.1.15,2013-05-31 09:40:00,
2013-05-31 04:46:00,73.5,72.6,29.92,SSE,150,0.0,1.0,97,0.00,,,0.15,0,Wunderground v.1.15,2013-05-31 09:46:00,
2013-05-31 04:51:00,73.5,72.6,29.92,SE,131,0.0,1.0,97,0.00,,,0.15,0,Wunderground v.1.15,2013-05-31 09:51:00,
2013-05-31 04:57:00,73.5,72.6,29.92,SSE,147,0.0,1.0,97,0.00,,,0.15,0,Wunderground v.1.15,2013-05-31 09:57:00,
2013-05-31 05:02:00,73.5,72.6,29.92,SSW,195,0.0,3.0,97,0.00,,,0.15,0,Wunderground v.1.15,2013-05-31 10:02:00,
2013-05-31 05:07:00,73.6,72.7,29.93,SE,140,0.0,3.0,97,0.00,,,0.15,0,Wunderground v.1.15,2013-05-31 10:07:00,
2013-05-31 05:12:00,73.6,72.7,29.93,SE,140,0.0,1.0,97,0.00,,,0.15,0,Wunderground v.1.15,2013-05-31 10:12:00,
2013-05-31 05:17:00,73.6,72.7,29.93,SE,141,0.0,1.0,97,0.00,,,0.15,0,Wunderground v.1.15,2013-05-31 10:17:00,
2013-05-31 05:23:00,73.6,72.7,29.93,SE,140,0.0,1.0,97,0.00,,,0.15,0,Wunderground v.1.15,2013-05-31 10:23:00,
2013-05-31 05:28:00,73.6,72.7,29.93,SE,139,0.0,1.0,97,0.00,,,0.15,0,Wunderground v.1.15,2013-05-31 10:28:00,
2013-05-31 05:33:00,73.6,72.7,29.93,SSE,168,1.0,1.0,97,0.00,,,0.15,0,Wunderground v.1.15,2013-05-31 10:33:00,
2013-05-31 05:39:00,73.6,72.7,29.93,SSE,167,0.0,1.0,97,0.00,,,0.15,0,Wunderground v.1.15,2013-05-31 10:39:00,
2013-05-31 05:45:00,73.6,72.7,29.94,South,170,0.0,1.0,97,0.00,,,0.15,0,Wunderground v.1.15,2013-05-31 10:45:00,
2013-05-31 05:51:00,73.6,72.7,29.94,South,170,0.0,1.0,97,0.00,,,0.15,0,Wunderground v.1.15,2013-05-31 10:51:00,
2013-05-31 05:57:00,73.6,72.7,29.94,SSE,167,0.0,1.0,97,0.00,,,0.15,0,Wunderground v.1.15,2013-05-31 10:57:00,
2013-05-31 06:03:00,73.6,72.7,29.94,SSE,165,0.0,1.0,97,0.00,,,0.15,5,Wunderground v.1.15,2013-05-31 11:03:00,
2013-05-31 06:11:00,73.6,72.7,29.95,SSE,165,0.0,1.0,97,0.00,,,0.15,5,Wunderground v.1.15,2013-05-31 11:11:00,
2013-05-31 06:16:00,73.6,72.7,29.95,SSE,165,0.0,1.0,97,0.00,,,0.15,12,Wunderground v.1.15,2013-05-31 11:16:00,
2013-05-31 06:23:00,73.6,72.7,29.95,SSE,165,0.0,1.0,97,0.00,,,0.15,12,Wunderground v.1.15,2013-05-31 11:23:00,
2013-05-31 06:31:00,73.6,72.7,29.95,SSE,165,0.0,1.0,97,0.00,,,0.15,26,Wunderground v.1.15,2013-05-31 11:31:00,
2013-05-31 06:38:00,73.7,73.1,29.95,SSE,165,0.0,1.0,98,0.00,,,0.15,46,Wunderground v.1.15,2013-05-31 11:38:00,
2013-05-31 06:43:00,73.7,73.1,29.96,SSE,165,0.0,1.0,98,0.00,,,0.15,49,Wunderground v.1.15,2013-05-31 11:43:00,
2013-05-31 06:49:00,73.8,73.2,29.96,SSE,165,0.0,4.0,98,0.00,,,0.15,56,Wunderground v.1.15,2013-05-31 11:49:00,
2013-05-31 06:56:00,73.8,73.2,29.96,SSE,165,0.0,1.0,98,0.00,,,0.15,74,Wunderground v.1.15,2013-05-31 11:56:00,
2013-05-31 07:01:00,73.9,73.3,29.97,SSE,165,0.0,1.0,98,0.00,,,0.15,100,Wunderground v.1.15,2013-05-31 12:01:00,
2013-05-31 07:08:00,74.1,73.5,29.97,East,101,0.0,3.0,98,0.00,,,0.15,72,Wunderground v.1.15,2013-05-31 12:08:00,
2013-05-31 07:13:00,74.1,73.2,29.97,SE,126,0.0,1.0,97,0.00,,,0.15,91,Wunderground v.1.15,2013-05-31 12:13:00,
2013-05-31 07:19:00,74.3,73.4,29.97,SE,126,0.0,1.0,97,0.00,,,0.15,81,Wunderground v.1.15,2013-05-31 12:19:00,
2013-05-31 07:27:00,74.4,73.5,29.97,South,169,0.0,3.0,97,0.00,,,0.15,49,Wunderground v.1.15,2013-05-31 12:27:00,
2013-05-31 07:33:00,74.5,73.6,29.97,South,169,0.0,1.0,97,0.00,,,0.15,142,Wunderground v.1.15,2013-05-31 12:33:00,
2013-05-31 07:42:00,74.7,73.8,29.97,SSE,153,0.0,1.0,97,0.00,,,0.15,332,Wunderground v.1.15,2013-05-31 12:42:00,
2013-05-31 07:47:00,74.9,74.0,29.97,SE,142,0.0,1.0,97,0.00,,,0.15,156,Wunderground v.1.15,2013-05-31 12:47:00,
2013-05-31 07:53:00,75.0,73.8,29.97,SE,124,0.0,7.0,96,0.00,,,0.15,86,Wunderground v.1.15,2013-05-31 12:53:00,
2013-05-31 07:58:00,75.1,73.9,29.97,South,173,1.0,7.0,96,0.00,,,0.15,100,Wunderground v.1.15,2013-05-31 12:58:00,
2013-05-31 08:03:00,75.1,73.9,29.97,SE,136,1.0,1.0,96,0.00,,,0.15,118,Wunderground v.1.15,2013-05-31 13:03:00,
2013-05-31 08:09:00,75.2,74.0,29.98,SE,132,1.0,5.0,96,0.00,,,0.15,206,Wunderground v.1.15,2013-05-31 13:09:00,
2013-05-31 08:14:00,75.3,73.8,29.98,ESE,108,1.0,2.0,95,0.00,,,0.15,179,Wunderground v.1.15,2013-05-31 13:14:00,
2013-05-31 08:19:00,75.5,74.0,29.98,SE,138,1.0,2.0,95,0.00,,,0.15,292,Wunderground v.1.15,2013-05-31 13:19:00,
2013-05-31 08:25:00,75.8,74.3,29.98,SE,141,0.0,1.0,95,0.00,,,0.15,137,Wunderground v.1.15,2013-05-31 13:25:00,
2013-05-31 08:30:00,75.8,73.9,29.98,South,185,1.0,1.0,94,0.00,,,0.15,151,Wunderground v.1.15,2013-05-31 13:30:00,
2013-05-31 08:35:00,76.0,74.1,29.97,SSW,197,1.0,2.0,94,0.00,,,0.15,257,Wunderground v.1.15,2013-05-31 13:35:00,
2013-05-31 08:41:00,76.2,74.0,29.97,SSE,152,0.0,1.0,93,0.00,,,0.15,118,Wunderground v.1.15,2013-05-31 13:41:00,
2013-05-31 08:46:00,76.3,74.1,29.97,SSE,153,0.0,1.0,93,0.00,,,0.15,489,Wunderground v.1.15,2013-05-31 13:46:00,
2013-05-31 08:57:00,76.9,74.1,29.97,South,177,1.0,1.0,91,0.00,,,0.15,204,Wunderground v.1.15,2013-05-31 13:57:00,
2013-05-31 09:04:00,77.3,74.5,29.97,SSW,200,1.0,1.0,91,0.00,,,0.15,563,Wunderground v.1.15,2013-05-31 14:04:00,
2013-05-31 09:20:00,77.8,74.0,29.97,SE,134,1.0,1.0,88,0.00,,,0.15,200,Wunderground v.1.15,2013-05-31 14:20:00,
2013-05-31 09:26:00,77.7,74.2,29.97,WSW,238,1.0,10.0,89,0.00,,,0.15,250,Wunderground v.1.15,2013-05-31 14:26:00,
2013-05-31 09:41:00,78.6,74.4,29.96,SE,139,1.0,1.0,87,0.00,,,0.15,315,Wunderground v.1.15,2013-05-31 14:41:00,
2013-05-31 09:48:00,79.0,75.1,29.97,SE,129,0.0,1.0,88,0.00,,,0.15,288,Wunderground v.1.15,2013-05-31 14:48:00,
2013-05-31 09:54:00,79.2,74.6,29.96,SSW,198,0.0,1.0,86,0.00,,,0.15,260,Wunderground v.1.15,2013-05-31 14:54:00,
2013-05-31 09:59:00,79.5,74.6,29.96,ESE,118,0.0,1.0,85,0.00,,,0.15,1009,Wunderground v.1.15,2013-05-31 14:59:00,
2013-05-31 10:04:00,80.1,75.2,29.96,SE,126,1.0,6.0,85,0.00,,,0.15,313,Wunderground v.1.15,2013-05-31 15:04:00,
2013-05-31 10:12:00,79.8,74.2,29.96,SE,140,1.0,1.0,83,0.00,,,0.15,178,Wunderground v.1.15,2013-05-31 15:12:00,
2013-05-31 10:18:00,79.4,74.1,29.96,SE,137,1.0,9.0,84,0.00,,,0.15,250,Wunderground v.1.15,2013-05-31 15:18:00,
2013-05-31 10:24:00,79.4,74.1,29.96,SSE,149,0.0,1.0,84,0.00,,,0.15,288,Wunderground v.1.15,2013-05-31 15:24:00,
2013-05-31 10:29:00,79.5,73.5,29.96,SSW,199,1.0,4.0,82,0.00,,,0.15,276,Wunderground v.1.15,2013-05-31 15:29:00,
2013-05-31 10:34:00,79.7,74.1,29.96,SW,229,1.0,4.0,83,0.00,,,0.15,308,Wunderground v.1.15,2013-05-31 15:34:00,
2013-05-31 10:40:00,80.1,74.8,29.95,South,179,0.0,1.0,84,0.00,,,0.15,729,Wunderground v.1.15,2013-05-31 15:40:00,
2013-05-31 10:45:00,80.8,74.8,29.95,SE,126,1.0,6.0,82,0.00,,,0.15,977,Wunderground v.1.15,2013-05-31 15:45:00,
2013-05-31 10:50:00,81.0,74.2,29.95,SE,129,1.0,1.0,80,0.00,,,0.15,213,Wunderground v.1.15,2013-05-31 15:50:00,
2013-05-31 10:55:00,80.8,74.4,29.95,SE,129,0.0,1.0,81,0.00,,,0.15,169,Wunderground v.1.15,2013-05-31 15:55:00,
2013-05-31 11:00:00,80.6,74.6,29.96,SSE,149,0.0,1.0,82,0.00,,,0.15,234,Wunderground v.1.15,2013-05-31 16:00:00,
2013-05-31 11:05:00,80.5,74.5,29.96,SSE,157,0.0,1.0,82,0.00,,,0.15,294,Wunderground v.1.15,2013-05-31 16:05:00,
2013-05-31 11:10:00,80.5,74.5,29.96,South,176,0.0,1.0,82,0.00,,,0.15,355,Wunderground v.1.15,2013-05-31 16:10:00,
2013-05-31 11:16:00,80.6,75.0,29.96,South,177,0.0,1.0,83,0.00,,,0.15,257,Wunderground v.1.15,2013-05-31 16:16:00,
2013-05-31 11:21:00,80.5,74.1,29.96,SW,219,0.0,1.0,81,0.00,,,0.15,197,Wunderground v.1.15,2013-05-31 16:21:00,
2013-05-31 11:27:00,79.5,74.2,29.96,South,185,1.0,1.0,84,0.40,,,0.17,492,Wunderground v.1.15,2013-05-31 16:27:00,
2013-05-31 11:32:00,78.8,74.9,29.96,South,189,0.0,1.0,88,0.21,,,0.18,504,Wunderground v.1.15,2013-05-31 16:32:00,
2013-05-31 11:37:00,78.7,75.8,29.95,SSW,194,0.0,1.0,91,0.08,,,0.18,649,Wunderground v.1.15,2013-05-31 16:37:00,
2013-05-31 11:42:00,78.9,75.4,29.95,SSW,204,1.0,6.0,89,0.04,,,0.00,471,Wunderground v.1.15,2013-05-31 16:42:00,
2013-05-31 11:48:00,79.1,74.9,29.95,SSE,165,1.0,6.0,87,0.00,,,0.00,636,Wunderground v.1.15,2013-05-31 16:48:00,
2013-05-31 11:53:00,79.6,75.4,29.95,South,175,0.0,1.0,87,0.00,,,0.00,459,Wunderground v.1.15,2013-05-31 16:53:00,
2013-05-31 11:58:00,80.0,75.8,29.95,South,169,0.0,1.0,87,0.00,,,0.00,480,Wunderground v.1.15,2013-05-31 16:58:00,
2013-05-31 12:03:00,80.5,76.3,29.95,SSE,167,0.0,1.0,87,0.00,,,0.00,555,Wunderground v.1.15,2013-05-31 17:03:00,
2013-05-31 12:09:00,80.6,75.7,29.95,South,174,0.0,1.0,85,0.00,,,0.00,185,Wunderground v.1.15,2013-05-31 17:09:00,
2013-05-31 12:14:00,80.7,75.8,29.94,South,174,0.0,1.0,85,0.00,,,0.00,350,Wunderground v.1.15,2013-05-31 17:14:00,
2013-05-31 12:20:00,80.9,76.0,29.94,South,190,0.0,1.0,85,0.00,,,0.00,397,Wunderground v.1.15,2013-05-31 17:20:00,
2013-05-31 12:26:00,81.4,76.5,29.94,WSW,240,0.0,4.0,85,0.00,,,0.00,355,Wunderground v.1.15,2013-05-31 17:26:00,
2013-05-31 12:33:00,81.5,76.2,29.94,WSW,244,0.0,1.0,84,0.00,,,0.00,243,Wunderground v.1.15,2013-05-31 17:33:00,
2013-05-31 12:43:00,81.3,76.4,29.95,SW,231,1.0,4.0,85,0.00,,,0.00,508,Wunderground v.1.15,2013-05-31 17:43:00,
2013-05-31 12:48:00,81.6,76.6,29.94,SW,227,1.0,4.0,85,0.00,,,0.00,1113,Wunderground v.1.15,2013-05-31 17:48:00,
2013-05-31 12:53:00,82.3,75.9,29.94,SE,140,1.0,4.0,81,0.00,,,0.00,1053,Wunderground v.1.15,2013-05-31 17:53:00,
2013-05-31 12:59:00,83.0,75.4,29.94,SW,227,2.0,4.0,78,0.00,,,0.00,1025,Wunderground v.1.15,2013-05-31 17:59:00,
2013-05-31 13:04:00,83.7,75.3,29.94,SE,144,1.0,5.0,76,0.00,,,0.00,1223,Wunderground v.1.15,2013-05-31 18:04:00,
2013-05-31 13:09:00,84.4,74.4,29.93,SSW,202,1.0,6.0,72,0.00,,,0.00,1148,Wunderground v.1.15,2013-05-31 18:09:00,
2013-05-31 13:14:00,84.4,74.4,29.94,SSE,152,2.0,6.0,72,0.00,,,0.00,450,Wunderground v.1.15,2013-05-31 18:14:00,
2013-05-31 13:19:00,84.4,74.4,29.93,SSW,206,1.0,6.0,72,0.00,,,0.00,666,Wunderground v.1.15,2013-05-31 18:19:00,
2013-05-31 13:25:00,84.6,74.6,29.93,SSW,206,1.0,6.0,72,0.00,,,0.00,1297,Wunderground v.1.15,2013-05-31 18:25:00,
2013-05-31 13:30:00,85.3,75.2,29.93,SE,134,1.0,5.0,72,0.00,,,0.00,1037,Wunderground v.1.15,2013-05-31 18:30:00,
2013-05-31 13:35:00,85.4,74.1,29.93,SSW,195,2.0,5.0,69,0.00,,,0.00,1216,Wunderground v.1.15,2013-05-31 18:35:00,
2013-05-31 13:40:00,85.6,74.3,29.93,South,177,1.0,1.0,69,0.00,,,0.00,1213,Wunderground v.1.15,2013-05-31 18:40:00,
2013-05-31 13:45:00,85.4,74.1,29.93,SSE,153,1.0,1.0,69,0.00,,,0.00,1213,Wunderground v.1.15,2013-05-31 18:45:00,
2013-05-31 13:51:00,85.3,75.2,29.93,SSE,154,1.0,1.0,72,0.00,,,0.00,397,Wunderground v.1.15,2013-05-31 18:51:00,
2013-05-31 13:56:00,85.4,74.9,29.93,SE,140,1.0,1.0,71,0.00,,,0.00,1139,Wunderground v.1.15,2013-05-31 18:56:00,
2013-05-31 14:01:00,85.8,75.3,29.93,SSE,161,1.0,1.0,71,0.00,,,0.00,1306,Wunderground v.1.15,2013-05-31 19:01:00,
2013-05-31 14:07:00,86.0,74.2,29.92,SSW,198,1.0,4.0,68,0.00,,,0.00,418,Wunderground v.1.15,2013-05-31 19:07:00,
2013-05-31 14:13:00,85.7,74.4,29.92,SE,137,1.0,1.0,69,0.00,,,0.00,394,Wunderground v.1.15,2013-05-31 19:13:00,
2013-05-31 14:18:00,85.5,74.6,29.92,South,188,1.0,3.0,70,0.00,,,0.00,468,Wunderground v.1.15,2013-05-31 19:18:00,
2013-05-31 14:26:00,85.6,75.1,29.92,South,191,1.0,1.0,71,0.00,,,0.00,427,Wunderground v.1.15,2013-05-31 19:26:00,
2013-05-31 14:32:00,85.6,75.1,29.92,SW,219,1.0,8.0,71,0.00,,,0.00,418,Wunderground v.1.15,2013-05-31 19:32:00,
2013-05-31 14:37:00,85.3,74.8,29.92,South,176,2.0,9.0,71,0.00,,,0.00,476,Wunderground v.1.15,2013-05-31 19:37:00,
2013-05-31 14:50:00,85.4,75.8,29.91,SW,224,1.0,1.0,73,0.00,,,0.00,499,Wunderground v.1.15,2013-05-31 19:50:00,
2013-05-31 14:55:00,85.4,75.3,29.91,ESE,115,1.0,6.0,72,0.00,,,0.00,555,Wunderground v.1.15,2013-05-31 19:55:00,
2013-05-31 15:00:00,85.6,75.9,29.91,SE,135,1.0,1.0,73,0.00,,,0.00,1113,Wunderground v.1.15,2013-05-31 20:00:00,
2013-05-31 15:06:00,85.7,75.6,29.91,SSE,165,1.0,3.0,72,0.00,,,0.00,278,Wunderground v.1.15,2013-05-31 20:06:00,
2013-05-31 15:11:00,85.4,75.8,29.91,SSE,163,1.0,1.0,73,0.00,,,0.00,408,Wunderground v.1.15,2013-05-31 20:11:00,
2013-05-31 15:16:00,85.5,75.9,29.91,SE,138,1.0,3.0,73,0.00,,,0.00,983,Wunderground v.1.15,2013-05-31 20:16:00,
2013-05-31 15:21:00,85.8,76.1,29.90,SW,218,1.0,6.0,73,0.00,,,0.00,923,Wunderground v.1.15,2013-05-31 20:21:00,
2013-05-31 15:27:00,86.0,75.9,29.90,ESE,119,1.0,6.0,72,0.00,,,0.00,970,Wunderground v.1.15,2013-05-31 20:27:00,
2013-05-31 15:32:00,86.0,75.1,29.90,SSE,160,1.0,1.0,70,0.00,,,0.00,422,Wunderground v.1.15,2013-05-31 20:32:00,
2013-05-31 15:37:00,85.5,74.6,29.91,SSW,192,1.0,14.0,70,0.00,,,0.00,350,Wunderground v.1.15,2013-05-31 20:37:00,
2013-05-31 15:42:00,85.0,74.5,29.90,South,178,1.0,5.0,71,0.00,,,0.00,418,Wunderground v.1.15,2013-05-31 20:42:00,
2013-05-31 15:50:00,85.2,75.1,29.91,SSW,195,1.0,1.0,72,0.00,,,0.00,378,Wunderground v.1.15,2013-05-31 20:50:00,
2013-05-31 15:55:00,85.4,75.3,29.90,SSE,160,0.0,2.0,72,0.00,,,0.00,554,Wunderground v.1.15,2013-05-31 20:55:00,
2013-05-31 16:00:00,85.2,76.0,29.91,South,190,1.0,1.0,74,0.00,,,0.00,353,Wunderground v.1.15,2013-05-31 21:00:00,
2013-05-31 16:05:00,84.8,75.2,29.90,SSE,165,1.0,3.0,73,0.00,,,0.00,313,Wunderground v.1.15,2013-05-31 21:05:00,
2013-05-31 16:10:00,84.5,75.3,29.90,SW,224,0.0,1.0,74,0.00,,,0.00,230,Wunderground v.1.15,2013-05-31 21:10:00,
2013-05-31 16:16:00,84.1,75.3,29.90,SSE,153,1.0,1.0,75,0.00,,,0.00,248,Wunderground v.1.15,2013-05-31 21:16:00,
2013-05-31 16:21:00,83.8,75.4,29.90,SSW,212,1.0,5.0,76,0.00,,,0.00,207,Wunderground v.1.15,2013-05-31 21:21:00,
2013-05-31 16:26:00,83.5,75.9,29.90,South,183,1.0,5.0,78,0.00,,,0.00,301,Wunderground v.1.15,2013-05-31 21:26:00,
2013-05-31 16:32:00,83.4,75.8,29.90,SSW,192,1.0,1.0,78,0.00,,,0.00,313,Wunderground v.1.15,2013-05-31 21:32:00,
2013-05-31 16:37:00,83.6,76.0,29.90,SSW,193,0.0,1.0,78,0.00,,,0.00,381,Wunderground v.1.15,2013-05-31 21:37:00,
2013-05-31 16:42:00,83.8,75.4,29.90,South,185,1.0,5.0,76,0.00,,,0.00,821,Wunderground v.1.15,2013-05-31 21:42:00,
2013-05-31 16:49:00,84.3,75.9,29.90,SSW,198,2.0,5.0,76,0.00,,,0.00,578,Wunderground v.1.15,2013-05-31 21:49:00,
2013-05-31 16:54:00,84.4,75.6,29.89,SSE,164,1.0,2.0,75,0.00,,,0.00,258,Wunderground v.1.15,2013-05-31 21:54:00,
2013-05-31 16:59:00,84.1,74.9,29.89,SE,144,1.0,1.0,74,0.00,,,0.00,281,Wunderground v.1.15,2013-05-31 21:59:00,
2013-05-31 17:04:00,83.9,75.1,29.89,SSW,208,1.0,2.0,75,0.00,,,0.00,352,Wunderground v.1.15,2013-05-31 22:04:00,
2013-05-31 17:10:00,83.9,75.1,29.89,SW,228,0.0,1.0,75,0.00,,,0.00,359,Wunderground v.1.15,2013-05-31 22:10:00,
2013-05-31 17:15:00,84.3,75.9,29.89,South,184,1.0,5.0,76,0.00,,,0.00,334,Wunderground v.1.15,2013-05-31 22:15:00,
2013-05-31 17:20:00,84.3,75.9,29.89,SSW,208,1.0,2.0,76,0.00,,,0.00,246,Wunderground v.1.15,2013-05-31 22:20:00,
2013-05-31 17:25:00,84.2,75.8,29.89,ESE,120,2.0,5.0,76,0.00,,,0.00,399,Wunderground v.1.15,2013-05-31 22:25:00,
2013-05-31 17:31:00,84.0,76.0,29.89,SE,145,2.0,8.0,77,0.00,,,0.00,490,Wunderground v.1.15,2013-05-31 22:31:00,
2013-05-31 17:36:00,83.9,75.9,29.89,SSW,193,2.0,8.0,77,0.00,,,0.00,163,Wunderground v.1.15,2013-05-31 22:36:00,
2013-05-31 17:41:00,83.8,76.2,29.89,SSW,198,2.0,2.0,78,0.00,,,0.00,151,Wunderground v.1.15,2013-05-31 22:41:00,
2013-05-31 17:46:00,83.6,76.0,29.89,South,179,0.0,2.0,78,0.00,,,0.00,128,Wunderground v.1.15,2013-05-31 22:46:00,
2013-05-31 17:52:00,83.2,75.6,29.90,East,98,1.0,1.0,78,0.00,,,0.00,114,Wunderground v.1.15,2013-05-31 22:52:00,
2013-05-31 17:57:00,82.8,75.2,29.90,South,183,1.0,9.0,78,0.00,,,0.00,100,Wunderground v.1.15,2013-05-31 22:57:00,
2013-05-31 18:02:00,82.4,75.2,29.89,South,177,1.0,3.0,79,0.00,,,0.00,91,Wunderground v.1.15,2013-05-31 23:02:00,
2013-05-31 18:08:00,82.1,75.3,29.89,SSE,154,1.0,3.0,80,0.00,,,0.00,141,Wunderground v.1.15,2013-05-31 23:08:00,
2013-05-31 18:13:00,81.9,75.1,29.89,South,171,1.0,1.0,80,0.00,,,0.00,223,Wunderground v.1.15,2013-05-31 23:13:00,
2013-05-31 18:18:00,82.0,75.2,29.89,SSW,199,0.0,1.0,80,0.00,,,0.00,84,Wunderground v.1.15,2013-05-31 23:18:00,
2013-05-31 18:23:00,82.0,75.2,29.90,SE,130,1.0,8.0,80,0.00,,,0.00,213,Wunderground v.1.15,2013-05-31 23:23:00,
2013-05-31 18:28:00,82.0,75.2,29.90,SSW,194,1.0,8.0,80,0.00,,,0.00,257,Wunderground v.1.15,2013-05-31 23:28:00,
2013-05-31 18:34:00,82.1,74.9,29.90,SSW,192,1.0,1.0,79,0.00,,,0.00,248,Wunderground v.1.15,2013-05-31 23:34:00,
2013-05-31 18:39:00,82.2,75.0,29.90,SSE,164,1.0,5.0,79,0.00,,,0.00,237,Wunderground v.1.15,2013-05-31 23:39:00,
2013-05-31 18:44:00,82.2,75.0,29.90,ESE,121,2.0,4.0,79,0.00,,,0.00,223,Wunderground v.1.15,2013-05-31 23:44:00,
2013-05-31 18:50:00,82.2,75.0,29.90,SSW,194,1.0,1.0,79,0.00,,,0.00,211,Wunderground v.1.15,2013-05-31 23:50:00,
2013-05-31 18:55:00,82.1,75.3,29.90,SSE,149,1.0,4.0,80,0.00,,,0.00,169,Wunderground v.1.15,2013-05-31 23:55:00,
2013-05-31 19:00:00,81.9,75.1,29.90,SE,140,1.0,1.0,80,0.00,,,0.00,160,Wunderground v.1.15,2013-06-01 00:00:00,
2013-05-31 19:05:00,81.7,74.9,29.90,SE,141,1.0,4.0,80,0.00,,,0.00,135,Wunderground v.1.15,2013-06-01 00:05:00,
2013-05-31 19:11:00,81.6,74.8,29.90,SSE,154,1.0,1.0,80,0.00,,,0.00,74,Wunderground v.1.15,2013-06-01 00:11:00,
2013-05-31 19:17:00,81.3,74.5,29.90,South,180,1.0,5.0,80,0.00,,,0.00,72,Wunderground v.1.15,2013-06-01 00:17:00,
2013-05-31 19:22:00,81.1,74.7,29.91,SE,134,1.0,4.0,81,0.00,,,0.00,76,Wunderground v.1.15,2013-06-01 00:22:00,
2013-05-31 19:27:00,80.9,74.5,29.91,SSE,147,0.0,7.0,81,0.00,,,0.00,67,Wunderground v.1.15,2013-06-01 00:27:00,
2013-05-31 19:32:00,80.6,74.6,29.91,SW,215,1.0,4.0,82,0.00,,,0.00,33,Wunderground v.1.15,2013-06-01 00:32:00,
2013-05-31 19:38:00,80.3,74.3,29.90,South,185,1.0,6.0,82,0.00,,,0.00,23,Wunderground v.1.15,2013-06-01 00:38:00,
2013-05-31 19:43:00,80.0,74.4,29.90,South,176,1.0,1.0,83,0.00,,,0.00,16,Wunderground v.1.15,2013-06-01 00:43:00,
2013-05-31 19:49:00,79.7,74.4,29.90,SSE,168,0.0,1.0,84,0.00,,,0.00,12,Wunderground v.1.15,2013-06-01 00:49:00,
2013-05-31 19:54:00,79.5,74.6,29.90,South,173,0.0,1.0,85,0.00,,,0.00,9,Wunderground v.1.15,2013-06-01 00:54:00,
2013-05-31 19:59:00,79.2,74.3,29.90,SSE,152,1.0,1.0,85,0.00,,,0.00,5,Wunderground v.1.15,2013-06-01 00:59:00,
2013-05-31 20:05:00,79.0,74.1,29.91,South,173,1.0,1.0,85,0.00,,,0.00,0,Wunderground v.1.15,2013-06-01 01:05:00,
2013-05-31 20:10:00,78.8,73.9,29.91,South,179,0.0,1.0,85,0.00,,,0.00,0,Wunderground v.1.15,2013-06-01 01:10:00,
2013-05-31 20:15:00,78.7,74.2,29.91,South,171,0.0,5.0,86,0.00,,,0.00,0,Wunderground v.1.15,2013-06-01 01:15:00,
2013-05-31 20:20:00,78.6,74.1,29.91,SE,138,0.0,1.0,86,0.00,,,0.00,0,Wunderground v.1.15,2013-06-01 01:20:00,
2013-05-31 20:26:00,78.4,74.2,29.91,South,172,0.0,1.0,87,0.00,,,0.00,0,Wunderground v.1.15,2013-06-01 01:26:00,
2013-05-31 20:31:00,78.3,74.1,29.91,SSW,205,0.0,1.0,87,0.00,,,0.00,0,Wunderground v.1.15,2013-06-01 01:31:00,
2013-05-31 20:36:00,78.2,74.0,29.91,SW,217,0.0,1.0,87,0.00,,,0.00,0,Wunderground v.1.15,2013-06-01 01:36:00,
2013-05-31 20:42:00,78.1,73.9,29.91,SSW,208,0.0,1.0,87,0.00,,,0.00,0,Wunderground v.1.15,2013-06-01 01:42:00,
2013-05-31 20:48:00,78.0,74.2,29.91,South,172,0.0,1.0,88,0.00,,,0.00,0,Wunderground v.1.15,2013-06-01 01:48:00,
2013-05-31 20:53:00,78.0,74.2,29.91,SW,217,0.0,8.0,88,0.00,,,0.00,0,Wunderground v.1.15,2013-06-01 01:53:00,
2013-05-31 20:58:00,77.9,73.7,29.91,SSE,158,1.0,9.0,87,0.00,,,0.00,0,Wunderground v.1.15,2013-06-01 01:58:00,
2013-05-31 21:03:00,77.8,73.6,29.91,SE,139,1.0,3.0,87,0.00,,,0.00,0,Wunderground v.1.15,2013-06-01 02:03:00,
2013-05-31 21:08:00,77.7,73.5,29.91,SE,142,0.0,3.0,87,0.00,,,0.00,0,Wunderground v.1.15,2013-06-01 02:08:00,
2013-05-31 21:13:00,77.6,73.8,29.91,SW,216,0.0,3.0,88,0.00,,,0.00,0,Wunderground v.1.15,2013-06-01 02:13:00,
2013-05-31 21:19:00,77.5,73.7,29.91,SSE,164,0.0,3.0,88,0.00,,,0.00,0,Wunderground v.1.15,2013-06-01 02:19:00,
2013-05-31 21:24:00,77.4,73.6,29.92,ESE,119,0.0,1.0,88,0.00,,,0.00,0,Wunderground v.1.15,2013-06-01 02:24:00,
2013-05-31 21:29:00,77.3,73.5,29.92,SSE,154,1.0,6.0,88,0.00,,,0.00,0,Wunderground v.1.15,2013-06-01 02:29:00,
2013-05-31 21:34:00,77.2,73.4,29.92,South,183,1.0,6.0,88,0.00,,,0.00,0,Wunderground v.1.15,2013-06-01 02:34:00,
2013-05-31 21:39:00,77.1,73.6,29.92,South,173,0.0,1.0,89,0.00,,,0.00,0,Wunderground v.1.15,2013-06-01 02:39:00,
2013-05-31 21:45:00,77.0,73.5,29.91,SSE,168,0.0,1.0,89,0.00,,,0.00,0,Wunderground v.1.15,2013-06-01 02:45:00,
2013-05-31 21:52:00,76.8,73.6,29.91,SE,126,0.0,1.0,90,0.00,,,0.00,0,Wunderground v.1.15,2013-06-01 02:52:00,
2013-05-31 21:58:00,76.7,73.5,29.92,SSE,159,0.0,1.0,90,0.00,,,0.00,0,Wunderground v.1.15,2013-06-01 02:58:00,
2013-05-31 22:03:00,76.6,73.4,29.91,SSE,161,0.0,1.0,90,0.00,,,0.00,0,Wunderground v.1.15,2013-06-01 03:03:00,
2013-05-31 22:13:00,76.5,73.7,29.91,SE,145,1.0,2.0,91,0.00,,,0.00,0,Wunderground v.1.15,2013-06-01 03:13:00,
2013-05-31 22:25:00,76.4,73.6,29.91,SE,144,1.0,7.0,91,0.00,,,0.00,0,Wunderground v.1.15,2013-06-01 03:25:00,
2013-05-31 22:34:00,76.4,73.2,29.91,SE,138,2.0,9.0,90,0.00,,,0.00,0,Wunderground v.1.15,2013-06-01 03:34:00,
2013-05-31 22:39:00,76.4,73.2,29.91,SSW,208,2.0,9.0,90,0.00,,,0.00,0,Wunderground v.1.15,2013-06-01 03:39:00,
2013-05-31 22:45:00,76.3,73.5,29.90,SE,127,2.0,9.0,91,0.00,,,0.00,0,Wunderground v.1.15,2013-06-01 03:45:00,
2013-05-31 22:54:00,76.1,73.3,29.90,SSE,158,2.0,5.0,91,0.00,,,0.00,0,Wunderground v.1.15,2013-06-01 03:54:00,
2013-05-31 23:00:00,76.0,73.2,29.91,SSE,162,2.0,2.0,91,0.00,,,0.00,0,Wunderground v.1.15,2013-06-01 04:00:00,
2013-05-31 23:02:00,76.0,73.2,29.91,ESE,113,1.0,2.0,91,0.00,,,0.00,0,Wunderground v.1.15,2013-06-01 04:02:00,
2013-05-31 23:03:00,76.0,73.2,29.91,South,183,1.0,3.0,91,0.00,,,0.00,0,Wunderground v.1.15,2013-06-01 04:03:00,
2013-05-31 23:04:00,76.0,73.2,29.91,SE,134,1.0,7.0,91,0.00,,,0.00,0,Wunderground v.1.15,2013-06-01 04:04:00,
2013-05-31 23:15:00,75.8,73.3,29.91,SE,142,1.0,5.0,92,0.00,,,0.00,0,Wunderground v.1.15,2013-06-01 04:15:00,
2013-05-31 23:17:00,75.7,73.2,29.92,SSE,166,1.0,5.0,92,0.00,,,0.00,0,Wunderground v.1.15,2013-06-01 04:17:00,
2013-05-31 23:22:00,75.7,72.9,29.91,SSE,148,1.0,4.0,91,0.00,,,0.00,0,Wunderground v.1.15,2013-06-01 04:22:00,
2013-05-31 23:36:00,75.6,73.1,29.91,SSE,154,1.0,2.0,92,0.00,,,0.00,0,Wunderground v.1.15,2013-06-01 04:36:00,
2013-05-31 23:41:00,75.6,73.1,29.91,SSE,160,1.0,1.0,92,0.00,,,0.00,0,Wunderground v.1.15,2013-06-01 04:41:00,
2013-05-31 23:46:00,75.6,73.1,29.92,SSE,160,1.0,1.0,92,0.00,,,0.00,0,Wunderground v.1.15,2013-06-01 04:46:00,
2013-05-31 23:51:00,75.5,73.0,29.92,SSE,148,0.0,1.0,92,0.00,,,0.00,0,Wunderground v.1.15,2013-06-01 04:51:00,
2013-05-31 23:57:00,75.5,73.0,29.92,SE,125,0.0,1.0,92,0.00,,,0.00,0,Wunderground v.1.15,2013-06-01 04:57:00,